Location: Kawakawa
(35.3830°S, 174.0670°E)
Time: 19:29:05
(UTC+13:00)

Cosmos 2227 - Pass Details

Date: 24 January 2019
Orbit: 834 x 862 km, 71.0° (Epoch: 20 February)

Event Time Altitude Azimuth Distance (km) Brightness Sun altitude
Rises 21:33:19 0° 198° (SSW) 3,433 8.3 -10.8°
Reaches altitude 10° 21:35:49 10° 194° (SSW) 2,488 7.4 -11.2°
Maximum altitude 21:41:29 62° 114° (ESE) 946 4.3 -12.2°
Enters shadow 21:45:59 16° 35° (NE) 2,061 5.6 -12.9°
